Simultaneous Nadir Overpasses (SNOs) Predictions

Prediction of SNOs between NOAA-19 and TERRA Satellite Orbit:

Table of predicted SNOs for the next 14.0 days since TLE Epoch: 10/13/2018
Index Date (NOAA-19) Time (NOAA-19) Lat,Lon (NOAA-19) SZA (NOAA-19 ) Date (TERRA) Time (TERRA) Lat,Lon (TERRA) SZA (TERRA ) Distance(km) Time Diff (sec)
1 10/15/2018 04:02:47 77.60, 137.51 86.88 10/15/2018 04:02:49 77.60, 137.57 86.89 1.66 2
2 10/17/2018 09:36:24 -77.62,-125.91 92.28 10/17/2018 09:36:32 -77.63,-125.77 92.26 3.60 8
3 10/17/2018 10:27:12 77.31, 42.90 87.58 10/17/2018 10:26:03 77.39, 40.89 87.46 49.58 69
4 10/19/2018 15:09:51 77.63, -29.25 88.55 10/19/2018 15:10:14 77.63, -29.19 88.56 1.35 23
5 10/19/2018 16:00:55 -77.57, 138.26 91.47 10/19/2018 15:59:42 -77.60, 138.32 91.47 3.22 73
6 10/21/2018 20:43:26 -77.61, 67.49 90.65 10/21/2018 20:43:57 -77.62, 67.33 90.65 3.88 31
7 10/21/2018 21:34:21 77.58,-125.07 89.35 10/21/2018 21:33:23 77.60,-125.10 89.34 2.18 58
8 10/24/2018 02:16:54 77.66, 163.98 90.17 10/24/2018 02:17:38 77.67, 164.10 90.20 3.07 44
9 10/24/2018 03:07:58 -77.62, -28.58 89.84 10/24/2018 03:07:07 -77.59, -28.56 89.88 2.75 51
10 10/26/2018 07:50:30 -77.67, -99.39 89.05 10/26/2018 07:51:22 -77.66, -99.33 89.03 1.25 52




NCC Satellite Simultaneous Nadir Overpasses (SNOs) Prediction Service
